Theta_e
348 351 353 352 352 353 354 357 354 353 353 340 338 345 345 349 349 348 350 349 349 349 346 346 346 346 346 346 347 348 347 345 347 346 345 348 348 349 352 350 349 349 349 345 342 340 340 341 341 342 340 339 337 338 338 339 339 340 341 340 340 341 341 341 340 341 342 343 342 341 341 342 343 344 344 344 345 344 342 340 339 338 338 337 338 342 342 340 342 345 345 345 345 345 345 345 343
349 353 352 351 351 352 354 356 352 348 345 335 339 345 346 349 347 348 351 349 347 346 346 346 346 345 345 346 346 345 345 345 348 350 349 348 348 350 350 349 348 349 351 346 344 342 340 340 341 342 341 339 338 339 339 339 339 340 341 340 341 342 342 342 342 342 342 343 343 342 343 344 344 344 344 344 344 343 341 340 337 336 337 338 337 339 341 340 340 343 345 344 345 345 345 344 344
351 352 351 351 353 353 354 354 352 346 339 335 341 347 348 348 349 350 348 347 346 346 346 347 348 347 345 345 345 344 345 346 348 351 349 348 350 350 350 349 349 350 349 346 348 345 340 341 341 341 341 341 340 339 339 340 341 341 341 341 341 341 341 342 344 343 342 343 343 343 344 345 344 344 344 343 343 342 341 339 337 336 336 338 339 338 340 342 342 343 344 343 344 345 345 344 343
352 352 352 352 354 356 355 354 354 345 336 336 342 348 350 349 350 349 347 347 345 346 348 349 350 348 346 344 344 346 345 346 347 349 349 348 349 350 350 349 349 350 348 345 346 345 341 341 340 340 341 341 341 340 340 340 341 342 341 341 341 341 342 343 345 344 343 343 343 343 345 344 343 343 343 342 341 341 340 339 337 336 336 336 337 338 339 341 343 344 344 344 344 344 344 343 343
352 352 353 352 354 355 354 357 359 347 337 339 343 349 351 350 349 347 347 346 345 347 349 348 347 347 347 345 344 346 345 344 345 346 347 347 349 350 350 349 349 349 347 345 345 345 342 339 341 340 341 341 340 341 341 341 341 341 342 341 341 342 343 343 344 345 343 343 344 344 344 344 343 343 342 342 341 341 339 338 337 336 336 335 335 337 339 340 342 342 342 344 343 343 343 342 341
351 351 352 353 355 354 353 354 353 347 344 347 348 351 351 349 349 348 347 346 347 348 349 347 343 345 346 346 346 345 345 345 347 347 347 348 348 348 349 349 349 348 348 349 347 345 340 338 341 341 341 341 341 341 341 342 343 343 343 342 342 342 343 342 342 345 344 343 344 345 344 343 342 341 341 341 340 339 338 338 336 335 335 337 336 336 338 339 342 340 340 343 343 341 340 337 334
350 351 353 355 355 354 354 349 348 348 348 350 350 351 350 350 350 348 348 347 348 348 348 345 343 343 343 345 345 346 345 346 347 347 347 347 348 348 349 349 348 348 349 350 348 345 339 338 341 341 342 342 342 342 342 343 344 344 344 344 343 342 342 343 342 344 344 343 344 343 343 343 342 341 340 340 339 338 336 336 335 335 335 338 338 337 338 339 341 341 340 341 341 338 336 332 327
349 351 354 355 354 354 357 352 350 351 348 349 350 351 351 351 351 349 349 348 348 348 347 346 345 344 343 344 346 347 346 346 347 347 347 348 348 348 348 349 349 349 350 349 347 344 340 339 342 343 342 343 343 344 343 344 344 344 345 345 343 341 342 343 343 344 345 344 344 343 343 343 342 341 340 339 338 338 336 335 334 334 335 338 340 338 338 339 341 341 340 340 339 337 335 332 329
349 352 353 354 357 358 358 352 351 354 351 351 351 352 352 351 352 351 350 350 349 349 349 348 346 346 345 345 347 347 347 347 347 346 347 347 348 348 348 349 349 349 349 348 345 343 341 342 343 343 344 343 344 345 344 344 344 344 345 345 343 341 341 343 343 344 345 344 343 343 343 343 341 340 339 338 337 336 337 337 335 333 334 338 340 339 338 339 341 341 340 340 339 338 336 335 332
352 353 353 354 358 356 351 349 351 355 353 353 353 352 353 352 352 352 351 350 350 348 349 348 346 345 344 345 347 347 346 346 346 346 346 347 347 346 347 348 347 347 348 347 345 344 343 343 344 344 345 344 345 345 344 344 344 344 344 344 343 343 342 342 344 344 344 343 342 342 341 340 340 339 337 337 336 335 336 337 338 336 336 337 339 340 340 340 341 341 341 340 340 339 337 336 335
354 354 354 354 356 352 347 347 351 353 353 354 355 355 355 354 353 353 352 350 350 348 348 348 346 344 346 348 347 346 345 345 345 345 345 346 346 346 346 346 345 346 349 348 346 345 343 344 345 344 344 343 344 344 344 344 344 344 344 345 344 344 344 343 344 344 343 343 341 341 341 340 339 338 336 336 336 336 336 337 338 338 338 338 338 338 340 340 341 340 340 339 338 337 337 336 335
355 355 355 353 355 354 350 348 352 354 354 353 354 357 355 354 354 353 353 351 350 349 349 348 346 345 347 348 346 345 344 344 345 345 345 345 346 346 345 345 345 347 349 348 346 345 344 344 344 344 344 343 343 343 344 343 344 344 344 345 344 345 345 345 344 343 342 342 341 340 341 340 339 338 336 336 336 337 338 338 338 338 339 339 338 338 339 341 340 340 340 338 337 337 337 336 335
353 355 356 353 356 359 354 350 353 353 352 354 354 356 355 354 354 354 353 352 351 350 348 347 346 346 346 346 345 343 344 344 345 345 345 346 346 346 345 345 346 349 350 348 345 345 344 344 343 344 344 343 342 343 345 344 344 344 344 345 345 345 346 345 344 342 341 341 340 339 340 340 339 339 339 339 338 339 340 340 338 338 339 339 338 339 340 341 340 339 339 338 338 339 338 337 336
352 355 357 356 357 360 356 351 351 350 351 354 354 355 356 355 353 353 352 353 353 350 348 346 345 347 347 346 344 343 344 345 345 345 346 346 346 345 345 346 349 351 350 349 346 345 345 345 345 344 344 344 343 344 345 344 344 343 343 344 344 344 345 344 343 343 342 341 340 339 340 340 340 340 340 339 339 339 340 340 338 338 338 337 338 339 339 339 340 338 338 338 339 339 339 339 338
351 354 358 358 356 356 355 350 350 350 350 353 355 356 356 354 352 352 354 355 352 348 347 346 346 346 345 344 344 345 345 345 345 345 346 346 345 345 346 348 351 351 349 349 348 346 347 348 347 345 346 345 344 345 344 343 344 344 343 344 344 344 344 343 342 343 342 341 340 340 340 340 341 341 341 340 339 339 340 339 338 337 336 337 337 337 337 338 338 338 338 339 339 340 340 340 338
350 354 356 355 354 351 353 350 351 350 350 352 354 355 355 354 354 353 354 353 349 347 346 345 344 345 344 343 344 346 345 345 346 345 346 345 344 346 348 350 352 351 350 349 348 347 347 348 348 348 348 347 345 344 344 344 344 344 344 344 344 344 343 343 342 342 343 341 340 340 340 340 340 340 340 339 337 339 340 339 338 336 335 335 335 335 336 337 337 337 338 339 339 339 338 337 336
349 353 353 351 351 351 353 353 351 350 350 353 354 355 354 355 354 351 350 349 347 347 345 342 342 342 342 344 345 346 345 346 346 345 345 345 345 347 349 351 351 351 350 350 350 349 348 348 348 349 349 347 345 343 343 345 344 344 344 344 344 344 344 343 343 342 342 341 340 340 341 342 341 338 337 336 337 338 339 339 336 334 333 333 334 336 338 338 338 338 339 339 338 336 335 335 334
349 353 350 347 350 353 354 354 353 352 351 353 355 355 353 352 351 350 350 349 348 346 344 342 343 344 344 345 347 346 346 346 346 345 344 344 345 348 350 350 350 351 351 350 351 350 349 349 348 348 349 346 344 343 343 344 344 344 344 344 344 344 343 343 343 342 340 340 340 340 342 343 341 337 335 334 334 335 335 335 333 331 332 333 335 338 338 338 338 339 338 338 338 338 338 340 340
348 352 350 349 352 354 355 354 354 354 352 352 356 354 353 351 349 352 352 350 348 346 344 345 345 345 346 347 346 345 346 346 346 345 343 344 346 349 350 349 350 351 351 350 351 351 350 349 347 347 347 347 346 343 343 344 344 344 344 344 345 343 342 343 342 339 340 341 341 343 343 342 341 338 335 332 330 331 332 332 331 331 332 335 337 338 338 338 338 338 337 339 341 342 344 345 345
345 350 352 352 353 353 355 354 354 353 352 353 355 354 354 351 350 353 354 350 347 345 344 346 346 346 347 346 346 345 345 345 346 344 343 344 346 349 350 349 350 351 350 350 351 351 350 350 348 347 346 347 349 346 344 344 344 345 345 344 344 343 342 341 340 339 341 341 343 345 345 342 339 336 334 331 330 330 330 330 330 331 334 336 338 338 337 337 337 337 338 341 343 344 345 345 346
345 347 350 352 351 352 355 355 354 354 353 354 355 355 354 351 352 353 352 349 346 345 344 346 346 346 346 345 345 345 346 346 345 344 343 345 347 349 350 348 349 350 349 350 351 351 351 351 348 346 346 347 349 349 347 345 345 345 345 345 344 344 343 341 339 340 341 342 344 345 344 342 338 337 338 338 338 333 331 332 332 334 337 338 339 340 339 339 340 342 343 343 344 345 346 346 346
344 347 349 353 352 353 356 356 355 355 353 353 354 354 354 352 353 353 351 347 345 345 344 345 345 345 346 345 345 346 346 346 344 345 345 346 347 348 349 348 348 348 348 350 352 352 352 352 350 347 347 349 349 349 348 346 347 348 347 348 346 346 346 344 343 342 342 343 345 345 343 343 342 342 343 343 344 340 338 341 341 342 345 344 344 344 345 346 346 346 348 347 346 344 344 346 346
343 347 350 354 354 356 358 357 355 356 353 353 355 354 353 353 353 353 352 348 345 344 343 344 345 345 345 345 346 346 346 345 345 346 346 347 347 348 348 347 348 347 349 352 352 352 353 352 352 349 348 349 349 349 350 348 348 350 350 350 349 349 349 348 348 345 345 345 344 344 343 343 343 344 344 345 348 346 345 346 346 347 348 348 347 347 348 349 349 349 349 348 347 344 343 344 344
344 346 352 353 355 358 358 357 355 355 355 353 353 353 354 353 353 353 351 348 345 343 344 344 345 345 346 346 347 346 346 346 346 347 347 348 348 348 348 348 348 348 350 352 352 353 353 352 352 351 350 350 349 350 351 350 349 348 349 351 350 349 349 349 349 345 345 346 344 343 342 342 342 343 345 347 349 349 348 348 347 347 348 349 348 348 349 349 349 349 349 349 348 345 344 345 344
344 348 353 355 357 358 355 356 355 353 354 353 353 353 354 350 351 353 348 345 344 344 345 345 345 346 345 345 347 347 347 347 347 348 348 348 349 348 348 348 348 348 350 351 352 353 352 352 352 351 351 351 351 351 351 351 350 349 349 350 350 350 349 349 347 345 346 346 345 344 342 342 343 344 346 348 349 349 349 348 347 348 348 349 349 348 349 349 349 350 350 349 349 347 344 346 346
347 350 354 357 358 356 354 355 354 352 351 353 353 353 353 350 351 353 348 344 344 344 345 345 345 345 345 345 346 347 348 348 348 348 349 349 349 348 348 347 348 349 349 351 352 353 352 352 352 352 352 352 352 351 351 351 351 350 350 349 349 350 348 347 346 346 346 347 346 345 344 343 343 346 348 350 351 350 349 348 348 348 349 349 348 349 350 350 349 350 351 350 350 348 345 346 346
350 352 355 358 358 356 354 354 354 352 353 354 353 353 355 354 352 352 350 346 344 344 345 345 345 345 344 345 346 348 348 348 348 349 349 349 349 348 348 347 348 349 349 351 352 352 352 352 352 352 352 352 352 352 351 351 350 349 348 348 349 348 346 346 345 344 345 346 343 343 347 347 346 348 351 350 350 350 349 349 349 349 349 349 348 349 350 351 350 350 351 351 351 348 346 347 344
350 351 355 357 357 358 355 356 354 353 355 355 353 354 356 354 350 351 351 347 344 346 345 344 345 345 345 345 347 349 349 349 349 349 350 350 349 348 348 348 348 349 349 351 352 352 352 352 352 352 351 351 351 351 351 350 350 348 347 347 346 346 346 345 344 345 345 343 339 340 347 351 350 350 352 352 350 350 350 349 350 349 350 350 350 350 351 352 351 350 350 351 351 347 345 346 344
350 351 353 355 356 357 357 358 356 354 357 357 354 353 354 353 350 352 353 348 346 346 345 344 344 345 346 347 348 349 350 349 349 349 350 349 349 348 347 348 348 348 350 350 351 352 353 352 351 351 350 349 350 350 349 349 348 346 346 346 345 345 345 345 345 346 343 338 337 340 344 348 351 350 350 352 351 350 351 350 350 350 350 350 350 352 352 352 351 350 350 350 350 347 345 346 343
351 352 351 351 351 353 357 357 355 354 356 359 357 351 350 352 352 354 353 349 349 347 345 344 344 345 346 347 349 350 350 350 349 349 350 350 349 348 347 348 347 348 350 350 351 352 352 351 350 350 348 348 349 348 348 347 346 346 345 344 345 345 345 345 345 345 342 340 340 341 342 345 348 349 349 351 351 349 351 351 351 351 351 351 351 352 352 351 352 351 350 349 348 346 346 347 343
350 351 349 347 344 347 356 354 354 355 355 359 357 348 350 353 353 355 353 351 351 348 346 344 344 344 345 347 348 350 351 350 350 349 349 349 348 348 347 347 348 349 349 350 351 351 351 350 349 348 348 348 347 347 347 346 345 345 344 345 346 345 344 344 344 344 344 345 345 343 343 343 344 345 347 350 351 350 350 351 352 351 351 352 350 352 352 351 352 352 351 348 346 346 345 345 344
347 343 338 343 343 346 356 354 353 355 354 358 354 347 352 354 352 355 353 351 353 349 346 344 344 344 344 345 347 350 351 350 350 350 349 349 349 348 347 347 348 348 349 350 351 350 350 349 348 348 348 348 346 347 347 346 345 345 345 346 345 344 343 343 344 345 347 349 349 346 342 342 343 343 345 349 351 351 350 350 352 349 351 353 351 352 353 351 352 352 351 350 349 347 345 344 343
340 338 334 340 342 343 351 353 355 353 353 358 354 349 353 353 351 353 352 352 353 350 348 346 344 344 344 344 346 349 350 351 350 350 349 349 348 348 346 348 349 348 349 350 350 350 350 349 347 348 348 348 346 347 347 347 347 346 346 346 345 345 344 344 346 348 349 348 350 349 343 342 343 342 344 349 351 351 350 350 350 349 352 353 352 353 353 352 352 351 350 351 352 349 345 343 343
333 336 335 339 341 339 344 351 354 352 352 355 353 352 353 351 352 354 353 352 354 351 349 348 345 344 344 343 345 348 350 351 351 350 349 349 349 348 347 348 349 348 349 350 350 349 349 348 347 347 347 347 347 346 347 348 348 347 347 347 348 348 346 348 348 349 349 346 348 348 344 343 343 342 344 347 351 352 351 352 352 352 353 352 354 354 352 353 354 353 350 350 350 350 347 345 344
330 332 332 334 339 339 342 348 351 351 350 352 352 353 352 352 354 356 355 354 354 353 351 349 346 345 345 343 343 347 351 350 351 351 350 349 349 348 347 348 348 349 349 349 349 349 348 348 348 348 347 348 348 346 347 349 348 348 348 348 351 350 348 349 349 349 350 348 348 346 346 349 344 342 344 346 352 353 352 354 352 351 351 352 355 354 352 353 353 353 351 350 352 349 348 346 345
334 334 333 333 335 337 343 348 350 353 352 353 353 352 353 353 354 356 355 353 354 354 352 350 347 345 344 343 342 346 349 349 350 351 350 350 349 348 348 347 348 348 349 349 349 349 349 349 349 349 348 348 347 346 348 348 347 349 349 348 351 351 350 350 349 351 350 348 350 347 348 351 344 342 343 344 351 354 354 354 350 352 353 352 355 356 355 352 350 352 349 349 353 350 348 346 344
335 334 334 334 333 336 345 350 350 354 354 352 352 351 352 352 353 355 355 352 352 354 352 349 347 345 345 343 342 345 348 349 351 350 351 350 348 348 348 347 348 348 349 349 349 349 349 350 350 350 349 348 346 346 348 348 348 351 349 347 350 351 351 351 350 351 349 350 351 348 350 350 343 343 344 344 348 350 352 352 346 349 354 352 352 353 351 346 346 353 351 349 352 350 348 346 343
333 331 331 331 332 337 344 348 349 353 352 349 351 352 351 352 353 355 356 353 352 354 353 350 349 346 345 343 342 344 347 348 350 351 351 351 349 348 347 348 348 348 350 349 349 350 349 350 350 350 350 348 347 346 348 349 350 351 349 348 349 350 351 351 351 350 350 351 349 349 354 350 343 343 343 343 347 348 350 351 346 347 351 348 344 347 345 341 346 353 353 351 350 348 347 345 345
330 329 328 327 331 339 342 348 350 350 348 346 351 351 351 353 352 354 356 354 353 354 352 350 349 348 344 343 343 343 346 348 349 351 351 351 350 349 347 348 348 349 350 349 349 350 349 350 350 350 350 348 348 347 349 351 351 351 350 348 348 349 350 349 350 350 350 351 349 352 353 347 344 345 344 346 349 351 351 351 351 350 349 346 344 348 348 344 348 354 353 349 348 347 346 345 347
327 327 325 325 333 335 333 343 349 346 347 348 351 351 351 354 353 354 356 355 356 354 351 349 348 350 346 342 342 343 345 348 350 351 351 350 350 349 348 348 348 348 349 348 349 349 349 350 350 350 350 348 349 348 349 351 352 351 351 351 350 349 350 350 352 351 351 352 352 354 350 343 348 351 350 353 353 350 349 352 357 354 348 346 346 346 347 349 351 353 350 347 348 348 345 345 347
325 327 325 325 333 332 331 340 344 344 349 352 352 348 348 352 353 355 355 354 356 354 352 352 350 349 347 343 342 342 345 348 350 350 350 351 350 349 348 348 348 348 349 348 349 348 349 350 350 350 349 349 349 347 348 352 351 350 351 352 352 350 351 352 352 351 352 353 352 354 351 345 350 355 353 355 353 346 345 349 352 353 350 348 350 349 349 352 352 351 349 346 347 348 347 347 347
323 327 327 327 332 333 335 339 339 337 340 349 350 340 342 351 353 354 354 352 354 354 354 353 352 349 348 346 341 342 344 347 350 348 349 351 350 350 349 348 347 347 349 348 348 347 348 350 349 348 349 349 350 346 346 351 348 347 350 350 351 351 350 350 349 349 350 351 350 352 353 350 352 354 353 354 354 347 345 346 346 353 354 349 351 354 352 352 351 352 351 350 351 348 346 348 349
320 325 328 328 331 333 335 337 335 331 333 345 349 338 337 346 351 355 354 352 353 354 353 352 354 351 348 349 342 342 343 346 349 347 349 350 350 351 351 349 347 346 348 348 349 347 347 350 349 348 348 349 351 345 342 347 345 346 350 349 350 349 349 349 348 348 348 349 350 351 352 353 352 355 354 351 350 345 344 345 345 351 356 352 350 352 353 351 352 354 354 354 353 347 349 352 350
320 327 331 330 331 333 334 336 334 332 337 347 352 345 338 338 345 355 355 352 353 354 353 352 354 352 350 349 345 342 343 344 347 347 349 350 350 352 351 350 348 346 347 347 349 348 348 350 349 348 348 349 351 346 339 343 344 345 349 349 349 348 348 350 350 351 351 351 352 352 353 352 350 354 357 351 345 345 344 344 344 347 353 354 352 353 354 353 354 355 352 351 347 347 354 356 352
321 326 329 329 332 333 334 335 333 333 337 338 343 347 338 335 346 355 355 353 354 355 353 352 353 352 351 350 347 343 343 344 345 346 348 349 350 352 351 351 348 346 346 346 348 349 349 351 350 350 348 348 351 347 339 340 343 345 348 350 350 349 349 350 351 352 353 353 355 354 354 355 351 350 354 351 346 346 345 343 344 345 349 353 352 353 354 354 354 352 348 351 353 354 356 354 352
322 324 325 328 332 332 334 334 331 330 332 330 334 340 334 334 346 353 353 352 352 355 354 353 354 353 352 351 348 344 343 343 343 345 347 348 350 351 350 351 349 346 345 345 347 348 350 353 352 351 349 349 351 346 340 340 342 344 347 350 352 351 351 352 352 353 353 353 354 353 351 353 354 351 351 350 347 346 346 346 349 350 351 354 353 353 354 352 351 349 349 354 353 352 354 354 354
323 323 325 327 329 331 333 333 331 328 327 327 333 342 338 333 341 349 352 352 350 353 354 354 354 353 353 352 350 346 343 343 343 344 346 348 349 350 350 350 350 348 346 345 346 347 350 352 353 352 349 349 350 345 342 343 342 345 348 350 352 352 353 354 353 353 351 350 352 355 353 352 354 355 353 351 349 350 349 349 354 356 354 355 353 352 354 353 352 352 354 354 349 347 351 352 352
322 323 325 325 324 327 328 328 329 327 325 331 339 346 341 332 337 347 350 349 348 351 354 353 352 352 352 352 350 348 344 342 343 343 345 347 348 348 349 349 350 349 347 346 346 347 349 351 353 353 350 351 352 347 344 345 346 348 349 350 352 351 352 354 354 351 350 350 352 355 355 353 354 354 355 354 353 355 353 350 354 358 355 355 355 355 356 355 353 354 355 355 355 352 350 350 351
324 323 323 321 320 324 325 324 326 325 326 337 344 344 337 333 337 346 348 346 348 352 353 351 350 351 352 352 351 349 345 342 343 343 344 346 347 347 348 349 350 350 348 348 347 347 349 351 353 354 351 351 352 351 347 347 349 350 350 350 351 350 350 352 353 352 352 353 354 355 354 353 352 353 354 355 354 354 355 352 352 355 353 351 353 353 352 351 350 354 357 356 357 356 355 355 353
325 323 321 320 320 322 324 323 323 323 325 335 344 342 333 331 336 341 344 347 348 352 353 350 348 350 351 352 352 349 345 343 342 343 344 345 347 347 347 349 351 351 350 349 347 347 348 351 353 354 352 349 350 352 350 348 351 351 349 351 351 350 349 349 351 353 354 355 355 356 355 354 353 353 353 354 354 354 356 354 351 351 349 345 346 345 346 347 346 350 356 354 355 357 356 355 353
326 326 325 321 320 321 321 321 322 323 325 332 341 339 331 331 338 340 341 345 348 352 353 351 349 350 351 351 350 347 346 342 342 343 343 344 346 347 347 348 351 351 351 349 347 348 349 352 353 354 353 349 348 351 352 350 351 352 349 350 352 352 351 351 352 354 355 356 355 355 355 355 354 354 354 354 353 353 356 356 351 351 348 343 344 343 345 350 346 344 349 349 351 355 355 354 355
329 328 324 321 323 323 320 320 321 323 327 333 335 334 333 337 343 342 341 344 347 351 353 350 349 350 352 352 351 349 346 342 342 343 343 343 345 346 347 348 350 351 351 350 348 349 351 352 354 355 353 351 348 349 352 352 351 352 351 350 352 353 353 353 354 354 354 355 356 355 355 355 355 355 356 355 354 352 353 355 353 352 349 345 346 344 344 351 349 345 347 346 348 354 357 357 355
328 329 325 323 327 326 320 321 323 325 328 331 330 328 333 340 343 344 342 343 345 350 352 349 347 348 351 351 351 350 348 343 342 342 342 343 344 346 348 347 349 351 351 351 350 350 352 352 355 356 354 353 351 348 351 354 353 353 353 351 352 353 353 354 354 354 354 354 355 355 355 355 354 355 356 355 354 353 351 351 353 356 355 351 350 348 346 349 346 345 350 349 347 352 356 355 354
326 329 330 328 332 330 324 325 328 328 328 327 326 327 330 336 341 346 346 347 346 346 349 349 347 346 349 350 350 349 349 345 342 342 342 343 345 346 348 347 348 350 350 351 351 351 353 354 355 356 355 354 352 349 351 354 354 354 354 353 352 353 352 353 354 354 354 354 354 354 354 355 355 355 355 355 356 356 352 349 348 352 356 353 351 352 354 352 346 346 352 352 347 349 350 349 350
328 332 334 329 331 331 328 327 326 326 325 326 327 327 327 331 337 343 345 347 347 345 347 347 347 346 346 348 350 349 349 347 342 342 343 343 345 346 348 348 348 349 348 350 351 352 354 354 354 355 354 354 353 351 351 353 353 354 354 353 353 354 354 353 353 354 354 354 355 354 353 353 355 355 355 355 356 357 356 352 347 348 353 352 350 352 354 352 348 349 354 354 352 352 349 347 350
331 332 332 329 331 331 331 330 328 324 323 326 328 326 327 335 339 342 345 347 346 346 348 349 348 348 346 347 349 349 349 349 344 343 343 344 345 346 348 348 348 348 348 349 351 351 352 353 354 354 353 353 353 352 352 352 353 353 353 353 353 353 354 354 354 354 354 355 355 355 354 353 354 355 355 356 355 355 356 356 353 352 354 353 353 354 354 354 352 351 352 353 356 357 352 348 350
334 328 327 328 328 329 332 333 332 328 323 325 328 325 329 340 344 344 348 348 346 345 346 350 351 350 348 347 348 349 349 349 346 344 343 344 345 346 348 348 348 348 348 348 350 350 351 351 352 353 352 352 352 351 352 352 352 353 353 353 353 354 353 354 354 355 355 355 355 354 354 353 354 354 355 356 355 354 355 356 355 354 354 354 355 355 355 357 355 352 349 349 351 352 349 348 351
333 327 325 327 329 329 332 331 328 325 323 323 325 325 331 343 346 345 347 346 347 347 345 347 350 349 350 349 348 349 350 348 346 345 344 345 346 345 347 348 348 349 349 348 349 350 351 351 352 352 351 351 351 351 352 352 352 353 353 353 353 353 352 352 353 354 354 355 355 354 354 354 354 354 355 356 356 355 355 355 354 354 354 355 357 356 355 356 356 354 353 352 353 352 350 349 351
Wind_Speed
2 3 5 3 1 2 4 5 3 2 3 2 6 7 8 10 11 11 11 10 8 8 12 12 11 9 7 10 12 13 9 8 5 3 7 13 16 14 12 14 14 13 11 10 10 10 9 9 8 7 8 7 8 9 8 8 9 9 10 11 10 10 9 10 10 11 12 12 12 13 12 11 10 11 12 12 13 12 13 14 15 15 13 13 13 12 12 13 12 12 14 14 15 15 14 14 15
1 3 2 3 3 3 3 5 2 1 3 6 8 7 9 10 10 11 11 10 9 11 13 13 12 10 11 13 13 13 14 14 12 13 16 19 17 13 13 13 13 13 11 10 9 9 9 9 9 8 9 7 7 8 8 8 9 9 9 10 10 11 10 10 11 11 12 12 12 12 11 10 11 12 12 12 13 13 14 14 15 14 12 13 13 13 12 12 12 12 14 15 15 15 14 15 15
2 1 3 4 4 5 4 2 1 2 3 7 7 8 9 10 11 11 12 13 13 13 12 12 11 9 10 12 11 11 12 15 16 19 20 19 16 14 13 13 13 12 11 10 9 9 10 10 9 9 10 8 7 7 8 8 8 9 9 8 9 10 10 10 11 12 12 11 11 11 11 11 11 12 11 12 13 14 14 15 16 14 12 13 13 13 13 11 12 14 15 14 14 14 15 16 16
6 3 4 5 4 4 3 2 1 2 3 7 6 8 10 11 13 13 14 14 14 13 10 11 10 10 10 11 12 13 13 16 16 17 18 17 16 16 14 13 13 11 10 11 10 9 10 10 9 9 10 9 9 8 9 8 8 9 8 8 8 9 10 11 11 12 12 11 10 10 11 11 12 12 12 13 14 14 15 15 15 13 12 12 13 14 14 12 12 14 15 15 15 15 15 15 15
5 3 5 5 4 2 2 2 1 1 3 7 7 10 12 13 14 13 15 14 14 11 9 9 10 12 13 13 12 12 13 17 15 15 16 17 16 16 15 13 12 10 9 10 10 9 9 9 8 8 9 10 10 10 11 10 10 9 8 9 10 9 10 11 11 11 12 12 11 10 11 11 12 12 13 14 14 15 14 15 15 13 12 12 13 13 14 13 12 14 15 14 15 15 15 14 14
3 6 8 6 5 4 2 1 1 1 5 8 7 11 13 13 14 15 15 14 13 10 9 9 11 13 14 16 16 13 13 16 14 14 16 18 17 15 15 13 11 10 9 9 8 10 9 8 8 8 9 9 9 10 11 11 11 11 10 10 11 10 10 11 11 12 12 12 12 11 11 11 11 12 13 14 14 15 14 14 14 12 11 11 12 13 13 12 12 14 14 14 15 15 14 14 14
5 7 7 5 5 4 1 0 2 2 8 10 10 12 14 13 14 15 14 13 11 8 8 11 13 12 11 14 16 15 13 14 14 15 17 18 17 15 14 12 12 11 10 9 7 9 9 8 8 8 8 9 9 9 9 9 10 10 10 9 11 11 10 11 11 11 12 12 12 12 12 11 11 12 13 13 14 14 14 13 13 12 9 10 12 13 13 12 12 15 15 14 14 14 14 14 14
6 6 2 2 2 2 0 1 2 4 9 11 12 14 14 14 15 14 12 10 9 8 9 11 12 10 11 14 14 13 14 15 16 17 18 18 16 15 13 12 11 10 10 9 7 7 9 8 8 8 8 8 8 9 8 7 8 9 10 9 10 11 11 11 11 11 11 12 13 13 12 12 11 12 13 13 14 14 14 13 12 11 10 11 12 13 14 13 12 14 15 14 13 13 13 14 14
7 6 2 1 1 0 1 3 3 7 10 12 13 14 15 14 14 12 10 9 9 8 11 12 10 10 14 17 15 14 15 17 18 18 17 17 15 13 12 11 10 10 8 7 7 7 8 8 7 8 8 8 7 8 8 7 7 9 10 10 10 12 12 11 11 11 11 12 12 13 12 11 11 12 12 13 13 13 14 14 13 12 10 11 12 13 15 14 13 14 14 13 12 12 13 13 12
9 5 1 1 1 0 2 5 6 7 10 13 13 13 13 13 12 11 10 10 9 8 12 14 11 13 16 16 15 14 16 18 18 17 16 15 14 12 11 10 9 9 7 6 6 5 6 7 6 7 8 7 7 7 7 7 8 9 10 11 12 14 14 13 13 13 13 13 12 13 11 11 11 11 12 12 12 12 13 13 13 12 11 11 12 13 16 16 14 14 13 12 12 12 12 12 12
6 3 1 1 1 2 4 7 8 8 11 13 13 12 11 11 11 10 11 10 9 9 10 11 12 15 16 15 14 15 17 18 17 17 16 14 12 11 10 9 9 9 7 6 6 6 5 6 6 7 8 8 8 7 7 7 8 10 11 12 13 14 15 15 14 14 13 13 13 13 12 12 12 12 12 12 12 11 12 12 13 13 13 12 12 11 14 16 15 14 13 12 12 12 12 11 11
3 3 1 2 1 2 4 6 10 11 13 12 11 10 9 10 10 9 10 9 9 10 8 8 11 13 13 13 15 17 17 17 16 16 15 13 12 11 10 9 9 8 7 5 6 8 6 5 6 7 7 8 8 8 8 8 7 9 11 12 13 15 16 16 15 15 14 14 14 14 13 12 12 12 12 12 12 12 11 11 13 13 14 13 12 11 12 14 13 13 13 12 12 12 12 12 12
3 1 1 2 0 0 3 5 10 11 10 9 11 9 9 10 9 9 9 10 9 9 8 8 13 12 11 14 16 17 17 16 16 15 14 12 11 10 9 9 9 9 7 4 6 8 6 5 7 7 8 8 9 8 8 8 8 9 10 11 13 14 15 15 15 16 16 15 15 15 14 13 13 13 12 12 12 12 11 11 12 13 14 14 13 13 12 12 12 12 12 12 12 12 13 13 13
4 3 1 1 1 1 2 6 9 9 7 8 11 10 9 9 9 10 10 11 9 8 9 9 12 12 12 14 15 17 17 16 16 14 13 11 11 10 9 9 8 9 6 4 7 7 7 7 5 6 8 8 9 9 9 9 9 10 10 11 12 14 14 15 16 17 17 16 16 16 15 14 14 14 13 12 12 12 11 11 12 12 13 13 13 13 13 12 11 12 12 12 12 13 13 14 13
7 4 3 1 2 2 4 7 8 7 7 9 11 11 10 10 9 10 9 10 9 9 9 8 8 9 11 13 13 17 18 17 16 14 13 11 11 10 9 9 8 8 6 4 8 9 9 10 6 5 8 9 9 9 10 10 10 11 11 12 12 14 14 16 17 17 18 18 18 17 16 15 14 14 12 11 11 11 11 11 11 11 12 12 13 14 13 12 12 12 12 12 13 13 13 13 12
7 4 3 1 1 2 1 5 8 6 8 11 12 12 12 10 8 9 8 8 10 8 6 7 6 5 11 14 16 19 19 18 16 15 14 12 11 10 9 8 8 9 7 4 6 8 9 10 8 6 6 9 9 10 12 11 11 12 12 13 14 15 16 17 18 18 19 19 19 18 17 16 15 13 12 11 11 11 11 10 10 10 11 12 13 13 13 13 12 12 12 11 12 13 13 13 12
7 5 1 1 2 3 3 4 5 6 9 13 13 12 11 10 8 9 9 9 11 8 6 8 6 6 12 17 21 22 20 18 17 15 14 12 11 9 8 8 8 8 7 6 5 6 7 7 8 8 7 8 9 10 13 13 13 13 13 14 15 16 16 18 19 19 19 19 18 18 17 16 15 13 12 11 11 12 12 11 11 11 12 12 12 12 12 12 12 12 11 10 12 13 13 14 14
5 3 2 1 0 2 3 1 3 5 8 13 13 11 10 10 10 10 10 10 10 9 9 10 10 12 17 21 23 22 20 18 17 15 13 12 10 8 8 7 7 8 7 7 7 7 7 5 7 9 9 9 8 10 13 14 14 14 14 15 16 17 18 19 20 20 19 19 18 17 16 16 15 13 12 11 11 12 13 13 13 12 12 11 11 11 11 12 11 11 10 9 10 11 12 13 11
5 2 2 3 1 3 4 1 6 7 6 11 12 10 11 11 11 10 8 9 9 9 11 13 15 18 20 22 23 21 19 18 16 14 13 11 10 8 8 7 7 8 7 7 7 7 7 5 5 9 11 12 10 10 13 15 14 15 15 16 17 18 19 20 21 21 18 17 17 16 15 15 16 14 13 13 13 14 14 14 13 12 12 11 11 10 10 11 10 9 8 9 10 11 13 11 6
5 3 1 1 1 2 3 1 9 10 8 10 11 10 11 11 11 8 7 9 10 9 12 14 16 19 21 22 22 20 19 17 15 13 12 10 9 8 7 8 8 8 8 7 8 8 8 6 6 9 12 13 13 11 12 15 15 15 16 16 17 18 20 21 20 19 16 16 15 14 14 15 16 16 15 15 16 16 15 14 13 12 12 11 11 11 11 9 9 8 8 10 11 12 11 6 3
4 4 3 4 0 1 3 2 4 10 11 10 11 10 11 11 9 8 8 8 7 9 12 13 15 20 22 22 21 19 18 16 14 12 11 10 9 8 7 8 8 8 9 8 8 9 10 9 7 10 12 14 15 12 12 15 16 15 16 16 17 18 19 20 19 17 16 16 14 13 14 15 16 16 15 14 14 15 15 13 12 12 12 11 11 11 9 7 7 6 7 9 9 7 4 3 4
3 3 5 5 2 2 2 2 2 5 10 11 10 10 10 11 9 8 8 6 6 10 13 14 16 20 22 21 20 18 17 15 14 12 11 10 9 8 8 8 8 8 9 9 9 10 11 10 9 9 13 14 14 14 12 14 15 13 14 15 15 16 17 17 16 15 16 16 14 14 14 14 14 13 13 14 12 12 12 11 11 12 10 9 10 9 6 4 5 4 3 4 4 3 3 4 4
4 2 6 5 5 3 2 3 5 6 8 12 9 10 12 11 10 8 8 6 7 10 12 15 17 20 21 20 19 18 17 15 13 12 11 11 10 9 8 8 9 8 9 10 10 11 11 11 10 10 12 12 13 15 13 13 14 14 15 15 14 15 15 15 13 14 15 15 13 13 13 12 12 12 13 14 13 10 9 8 9 10 8 7 8 7 6 4 4 3 3 3 3 4 4 6 6
3 4 7 7 7 3 2 3 7 8 6 11 9 10 11 9 10 8 8 8 10 11 12 16 19 19 20 19 18 17 16 14 13 12 11 11 10 9 9 8 8 8 10 10 10 10 11 11 12 11 11 12 13 14 13 13 12 14 17 15 15 15 14 13 12 15 16 15 13 12 12 12 11 11 11 12 12 9 8 7 8 9 8 7 7 6 6 5 4 4 4 4 3 4 5 6 6
2 4 5 6 6 4 3 1 6 5 5 7 9 9 9 9 9 7 9 11 12 13 14 18 19 19 19 18 17 16 15 14 13 13 11 11 10 10 9 8 8 9 10 11 11 11 11 11 11 12 12 12 12 12 12 13 12 14 15 14 15 14 12 13 14 14 14 14 14 12 11 11 11 10 10 10 10 9 8 8 8 9 8 8 7 6 6 5 5 4 4 4 4 4 5 5 5
6 6 4 6 7 8 9 5 5 5 7 10 11 10 11 12 9 6 8 11 13 14 15 19 20 18 18 18 17 16 15 14 13 12 12 11 11 10 9 9 9 9 10 12 12 12 12 12 11 12 12 12 12 11 12 12 13 13 14 14 14 13 13 14 14 12 12 13 13 13 12 10 10 10 9 10 9 8 8 8 9 8 8 7 7 6 6 5 4 4 3 3 3 4 5 5 5
9 8 7 8 8 10 9 4 4 7 10 10 8 8 10 9 6 5 6 10 13 14 17 19 19 18 17 17 17 16 15 14 13 12 11 12 11 10 10 9 9 10 11 12 12 12 12 12 12 12 12 12 11 12 12 12 13 13 14 14 13 13 14 14 13 12 12 11 13 16 14 10 9 9 9 9 9 8 7 8 8 8 8 7 6 6 5 5 4 3 3 4 4 5 5 5 6
9 9 7 8 7 8 7 5 4 6 6 3 4 6 8 7 4 6 8 10 12 14 17 18 18 17 16 17 16 15 15 13 12 11 11 12 11 11 11 10 11 11 11 12 12 13 13 13 13 12 12 13 12 12 13 13 13 13 13 12 12 14 13 12 12 12 11 11 13 16 14 10 9 10 10 9 8 7 7 8 8 7 7 6 5 6 5 4 4 4 4 4 5 5 6 6 6
6 8 4 5 5 6 6 5 2 3 2 2 4 7 8 7 6 8 9 10 12 14 17 18 17 17 16 16 16 14 14 13 12 11 11 11 11 11 11 11 11 11 11 11 12 14 14 14 13 13 12 13 13 12 13 13 13 12 12 11 13 13 12 11 12 11 12 13 13 12 12 12 10 10 11 10 8 8 8 7 7 7 6 6 5 5 4 4 3 4 4 4 4 5 5 6 6
3 5 3 2 3 4 5 4 2 2 2 2 2 5 6 9 8 10 12 12 13 14 16 18 17 17 17 16 16 15 14 13 12 11 11 11 11 12 12 12 12 11 11 12 13 14 14 14 14 13 13 13 13 13 13 13 12 11 11 12 13 12 11 11 11 12 12 12 12 11 11 12 11 10 11 11 9 8 8 7 7 6 6 5 5 6 5 4 4 4 3 3 5 5 5 5 6
2 4 3 1 0 3 5 4 3 3 2 2 3 3 2 8 10 12 13 13 14 14 15 18 18 17 17 16 15 15 15 13 13 12 12 12 12 12 12 13 12 11 12 13 14 14 14 14 14 14 14 13 13 13 13 12 12 12 12 12 12 11 11 11 12 12 11 10 10 10 10 10 10 11 11 12 10 7 7 7 6 6 6 5 4 6 6 3 4 4 3 3 5 6 5 5 6
4 3 2 0 1 3 6 5 6 5 2 3 6 2 1 3 8 13 14 13 15 14 14 17 18 18 17 17 15 15 15 14 13 13 13 13 13 13 13 13 12 12 13 14 14 14 14 14 14 15 15 14 14 14 13 12 12 12 12 12 12 12 11 11 11 11 10 10 8 8 9 9 8 9 11 13 10 6 7 6 6 7 6 4 4 5 5 3 4 4 3 4 3 4 5 5 6
5 4 1 2 3 3 5 3 5 6 3 6 9 3 2 2 5 11 14 15 14 12 14 16 17 18 17 16 16 15 15 15 14 14 14 14 13 13 14 14 13 13 13 15 15 14 14 15 15 15 15 14 14 14 14 13 12 12 12 12 11 11 10 10 10 9 9 9 9 8 8 8 7 8 10 12 11 7 6 5 5 6 4 4 4 4 4 4 4 3 4 4 3 4 5 4 5
4 3 2 1 1 1 3 1 2 5 4 6 9 5 3 3 6 10 13 15 14 11 13 17 16 17 17 16 16 16 15 16 15 16 16 14 14 14 14 14 13 13 14 15 15 14 14 15 15 15 15 15 14 15 15 12 12 12 11 11 10 9 9 9 8 8 7 6 8 8 7 7 6 8 8 11 12 8 6 6 5 6 4 4 3 3 3 4 4 4 3 4 4 5 4 3 4
0 1 2 0 1 0 2 2 5 7 5 6 9 7 6 7 8 10 10 11 14 13 11 14 17 17 17 16 16 17 16 16 16 16 17 15 15 15 15 15 14 14 14 15 15 15 15 15 15 16 15 14 14 15 14 12 12 12 10 10 10 9 8 8 7 8 7 6 6 7 7 6 5 7 8 10 11 7 5 4 5 6 4 5 4 3 3 3 4 5 3 4 3 3 3 2 3
3 3 3 2 1 1 1 2 7 9 8 8 9 8 9 10 9 9 9 8 13 12 6 10 16 17 17 17 16 17 16 16 16 16 17 16 16 16 16 15 15 15 15 16 16 15 15 15 16 16 15 14 15 15 14 12 12 10 10 10 9 9 8 8 7 7 6 6 6 7 8 6 6 8 7 9 10 8 6 4 7 7 4 5 4 3 3 3 5 4 3 5 3 1 1 1 2
6 8 5 4 2 1 2 1 3 4 4 3 4 6 8 9 9 9 11 9 12 10 7 13 16 17 16 17 17 17 16 16 16 17 17 17 17 17 16 16 15 16 16 16 16 16 15 15 16 16 15 15 15 15 13 12 11 10 10 10 9 8 8 8 7 7 6 6 6 7 7 6 7 8 7 8 8 8 7 5 8 8 5 5 5 4 3 4 6 4 3 3 4 2 2 1 1
8 9 7 5 2 3 2 2 0 2 3 3 3 4 7 9 9 9 11 11 12 12 10 14 15 17 18 16 17 17 16 16 17 18 18 17 18 18 17 16 16 16 16 17 17 16 16 15 16 16 15 15 14 14 13 11 10 9 9 9 8 8 8 8 7 7 6 6 8 8 6 5 7 8 7 8 8 7 6 5 6 7 5 6 6 4 3 4 5 4 3 3 3 1 3 3 1
9 8 7 6 2 4 4 2 1 2 2 2 5 3 5 7 8 9 11 12 12 8 7 11 14 12 18 17 17 18 17 18 19 19 19 18 19 19 18 17 17 16 16 17 17 17 17 15 16 16 15 15 14 14 13 11 10 9 8 8 7 7 7 7 7 7 6 5 7 7 6 8 7 6 6 7 6 5 6 6 4 4 5 6 6 4 3 2 3 4 3 3 3 1 4 6 2
9 7 8 5 7 4 2 2 3 4 3 4 6 4 3 5 6 8 10 11 9 3 7 15 16 12 13 18 18 18 19 19 19 19 19 19 20 19 18 18 18 17 17 18 17 17 17 16 17 17 16 16 15 15 13 11 10 10 9 7 7 7 7 7 7 7 7 6 6 6 6 7 8 5 5 5 4 6 8 7 4 3 4 6 5 4 3 2 1 2 1 2 4 3 2 5 3
8 9 9 6 4 4 0 2 3 5 4 3 4 4 3 6 7 7 9 9 6 4 7 15 15 13 14 17 19 19 19 20 20 20 19 19 20 20 19 19 18 18 18 18 18 18 17 17 18 17 16 16 15 16 15 12 13 13 12 9 8 9 8 7 8 8 8 7 7 6 5 6 8 6 6 6 4 5 7 6 6 4 3 5 4 2 2 1 1 0 1 1 3 2 1 2 3
9 9 10 9 8 7 1 2 4 5 4 1 2 4 2 6 8 8 9 9 7 7 9 12 13 11 15 16 20 20 20 20 19 20 20 20 20 20 19 20 19 19 18 18 18 18 18 17 18 18 17 16 15 16 16 14 14 14 12 11 9 9 8 8 8 8 8 7 6 7 6 5 7 6 6 7 5 5 6 5 5 4 2 3 5 4 3 2 2 1 1 2 2 2 1 2 2
7 4 7 8 5 4 3 4 6 6 3 2 2 5 3 3 7 8 10 11 10 9 11 13 14 13 14 18 20 21 21 20 19 19 20 20 20 20 20 20 20 20 19 19 18 18 18 18 19 18 18 16 15 17 17 14 14 13 11 10 8 8 8 8 8 7 7 6 5 6 6 6 7 6 5 5 5 4 4 4 4 4 2 2 3 4 3 2 2 2 2 1 1 2 1 2 2
6 1 4 6 2 4 6 5 7 6 3 1 4 8 6 3 4 8 11 11 11 10 11 14 15 16 16 18 19 21 22 21 20 20 20 20 20 21 21 21 20 20 19 20 19 18 19 19 19 19 18 17 15 16 17 15 15 14 12 10 9 8 8 8 8 7 6 6 5 5 6 6 6 8 6 5 4 4 3 3 3 4 4 3 3 3 2 2 3 3 3 2 2 2 1 2 3
9 3 4 6 6 8 6 5 9 7 4 5 7 9 8 2 2 7 11 10 11 13 14 15 18 19 19 19 21 21 22 22 21 21 20 20 20 20 21 21 20 20 20 20 19 19 19 19 20 19 18 18 16 16 18 16 14 13 13 11 9 8 7 7 8 7 7 7 7 7 7 6 5 7 8 6 4 5 4 3 3 4 4 3 3 4 3 3 3 3 2 1 1 1 2 3 2
10 9 6 6 7 7 6 7 9 7 7 9 6 7 6 1 5 7 9 10 11 12 12 14 19 21 21 22 24 22 22 22 21 21 21 20 20 20 20 20 20 20 20 20 20 20 20 19 20 20 18 18 17 17 17 17 15 13 13 12 10 9 8 7 8 7 8 8 7 8 8 7 5 5 6 6 5 5 5 4 3 3 3 2 4 6 4 3 3 2 2 3 3 3 2 3 3
11 10 7 8 9 7 7 7 7 7 9 9 5 7 6 4 4 6 7 9 12 12 10 13 18 21 21 23 24 22 22 23 22 21 21 20 20 20 20 20 21 21 20 21 20 20 20 20 20 21 19 18 17 17 17 16 16 14 13 13 11 10 9 8 9 8 8 9 8 7 7 7 6 5 5 6 5 5 6 5 4 3 4 4 4 4 3 3 2 1 3 5 5 4 3 3 4
11 8 7 8 8 7 6 7 6 8 8 5 5 10 10 8 1 4 8 10 12 13 12 14 18 21 24 24 24 23 23 24 23 22 22 21 21 20 20 20 20 21 21 21 21 20 21 20 20 21 20 19 18 17 17 16 16 15 13 13 12 12 11 9 10 10 9 8 7 7 7 7 7 7 7 6 6 6 7 6 6 5 5 5 4 3 4 5 3 1 3 4 4 5 4 4 4
7 7 7 7 6 5 6 6 7 8 6 1 3 5 8 6 2 6 10 10 11 13 15 16 19 23 25 25 24 24 24 25 24 23 23 23 22 22 21 21 20 20 21 22 21 21 21 21 21 21 20 20 19 18 17 17 17 16 14 14 14 13 13 12 11 10 9 8 7 8 8 8 8 8 8 7 7 7 7 6 7 7 6 6 6 6 6 7 6 4 3 4 4 5 5 4 5
6 7 7 6 6 6 7 7 7 8 7 5 1 7 7 4 3 5 8 9 11 15 19 20 21 23 25 24 25 25 25 26 25 24 24 23 23 22 22 21 21 20 20 21 21 21 21 21 21 22 21 21 20 19 18 18 17 17 16 15 14 14 14 14 12 10 9 8 8 8 8 7 7 8 8 8 7 8 7 7 7 7 7 7 6 7 6 6 6 5 5 5 4 6 7 6 6
6 7 7 7 7 7 7 6 6 7 5 3 3 3 5 2 2 3 4 8 12 15 19 21 19 20 22 22 25 28 27 26 26 25 25 24 24 23 23 22 21 21 20 20 21 21 21 21 22 22 22 22 21 20 19 19 18 17 17 16 15 14 14 13 12 10 10 9 9 9 9 8 7 7 8 8 9 9 8 8 8 7 7 7 6 6 5 5 7 6 6 6 5 6 8 7 7
5 7 8 8 7 8 8 8 7 5 5 2 1 4 4 2 2 1 1 6 12 14 17 21 18 16 18 18 20 24 26 25 26 26 25 24 24 24 23 23 22 21 21 20 21 22 21 20 21 22 22 22 22 22 20 19 19 18 18 18 16 15 14 13 13 12 12 11 10 9 10 9 8 8 8 8 9 9 9 9 8 7 7 7 7 7 6 6 8 7 7 7 6 5 7 8 8
2 6 7 4 7 10 9 8 7 5 5 5 4 7 3 2 2 2 2 3 9 12 14 18 18 15 16 18 22 24 24 24 26 26 26 26 25 24 23 23 23 21 21 21 20 21 21 20 21 21 22 21 21 22 21 20 19 18 18 18 18 16 16 14 13 13 12 12 11 10 10 9 9 9 8 8 8 9 9 9 8 7 7 7 6 7 6 7 9 7 7 8 7 6 8 10 9
2 3 5 5 7 8 7 5 5 6 7 5 5 9 4 4 2 4 4 3 4 8 12 16 17 15 14 16 25 29 26 25 26 26 27 27 25 25 24 23 23 22 21 21 20 20 20 19 20 21 22 22 22 22 21 20 19 19 18 18 18 17 16 15 14 13 12 12 12 11 10 10 10 10 9 8 8 9 9 9 9 9 9 8 8 7 7 8 9 7 7 9 8 7 9 10 9
6 2 2 4 4 4 5 6 7 8 7 4 6 11 7 2 2 1 2 2 4 5 8 13 16 17 16 15 20 26 26 25 26 26 26 27 26 25 25 23 22 22 21 21 20 19 20 20 19 20 21 21 21 21 21 20 20 19 18 18 19 18 16 16 14 13 13 12 12 12 11 11 10 10 10 10 10 9 9 9 9 9 9 9 8 8 9 10 9 7 7 8 7 8 10 9 8
8 4 4 6 4 2 3 3 5 7 6 4 6 8 4 3 2 2 2 1 2 5 8 10 14 18 19 18 18 21 23 23 24 26 26 26 27 26 25 24 23 22 21 20 21 20 20 20 19 19 20 21 21 20 20 21 20 18 18 18 18 18 17 16 15 15 14 13 13 12 12 12 11 11 11 11 11 10 9 9 8 7 8 8 8 7 8 9 9 9 8 7 7 9 11 9 8
7 6 5 6 5 5 4 2 4 7 6 3 5 6 1 3 2 2 4 5 2 2 6 9 11 17 19 19 17 18 23 24 22 25 27 26 27 26 25 24 23 22 22 21 21 21 20 19 20 20 20 20 21 21 20 20 19 18 18 17 17 17 18 17 16 15 15 14 13 13 12 12 12 11 11 11 11 11 10 10 9 9 8 8 9 10 9 9 11 11 9 8 9 10 11 10 9
5 5 5 6 4 2 2 4 7 8 6 5 5 6 0 3 2 2 4 5 7 5 3 8 12 13 17 18 18 16 21 26 23 23 26 26 26 27 25 24 24 23 22 22 21 21 20 20 20 20 20 20 20 20 20 20 19 19 18 17 17 17 17 17 16 16 16 14 14 13 13 12 12 12 12 11 11 10 10 11 10 10 10 8 9 11 11 10 11 11 10 9 9 10 11 10 10
Wind_Direction
25 37 56 33 232 273 240 225 246 186 208 113 100 96 90 93 104 106 109 110 94 86 88 81 75 64 54 77 89 92 67 43 45 40 100 130 140 139 132 134 137 133 133 135 136 130 129 122 120 123 114 116 128 134 135 136 132 128 130 128 123 118 116 118 124 126 121 116 115 118 127 140 137 120 113 110 109 109 106 103 97 92 89 91 91 87 88 93 93 94 99 100 100 101 100 100 98
60 58 87 284 251 264 253 212 254 209 184 101 93 98 106 110 106 102 104 101 98 107 98 81 81 80 72 86 98 87 62 62 79 85 108 132 136 138 138 137 138 136 136 136 136 134 134 127 129 130 123 121 125 137 142 141 134 131 135 134 129 122 122 126 128 126 121 118 119 122 132 138 126 114 111 110 113 113 108 105 99 97 95 92 94 94 87 90 98 96 93 96 99 101 100 97 96
186 336 203 268 273 247 274 213 251 258 156 105 101 107 116 111 99 95 95 99 109 111 100 91 84 75 79 84 80 79 76 80 94 102 115 134 134 138 140 138 138 138 138 133 135 139 139 134 135 136 132 132 134 141 143 142 135 133 134 136 136 129 131 132 131 128 121 119 125 130 132 128 118 114 112 111 115 117 113 108 103 102 98 94 94 95 90 88 96 99 98 100 102 101 99 97 96
179 252 241 282 291 240 260 230 237 256 132 110 108 110 114 105 101 99 101 111 116 111 99 97 83 68 73 78 81 82 88 93 103 112 123 138 137 138 140 140 139 140 140 134 138 140 139 140 139 141 141 141 147 148 145 149 147 140 139 143 143 138 137 137 132 127 123 124 133 135 129 125 118 117 115 113 115 117 114 107 105 103 99 97 96 94 95 94 95 99 101 101 101 99 98 98 97
165 230 248 267 281 291 285 268 340 277 110 112 114 111 111 106 109 107 111 118 114 107 92 93 94 86 71 66 86 94 99 103 109 115 126 138 138 138 140 141 138 141 136 128 139 143 140 145 148 146 145 144 148 152 152 156 158 152 154 157 149 145 144 140 134 130 131 132 136 135 129 125 119 119 118 117 116 114 111 107 105 105 103 102 100 99 99 100 100 99 97 97 100 99 98 98 97
205 243 251 256 263 302 318 300 121 84 76 103 118 113 113 111 114 114 116 115 110 101 85 93 100 97 79 68 78 91 107 111 112 118 126 135 138 139 138 137 136 136 124 116 133 148 149 153 155 147 142 142 142 150 153 152 156 153 153 160 152 148 146 141 139 138 136 134 135 133 127 122 119 121 121 119 117 114 111 108 107 108 108 107 107 105 100 101 101 99 97 98 98 98 97 96 96
239 250 253 259 253 253 256 229 200 117 86 106 118 114 114 116 119 119 120 118 114 102 93 102 104 100 93 89 83 83 99 111 115 122 127 133 138 138 136 135 136 133 127 129 138 147 152 156 154 147 144 145 141 144 150 148 148 145 146 158 155 147 144 139 141 142 137 135 133 130 126 122 123 124 122 120 116 113 113 113 112 113 113 112 110 105 103 102 99 100 102 102 99 97 96 94 95
242 266 284 282 248 224 259 266 216 105 102 111 109 112 115 120 123 122 124 124 118 112 106 94 92 96 95 98 94 89 97 107 116 122 127 132 135 136 136 136 136 134 138 150 148 141 148 154 152 150 150 147 143 142 146 148 140 138 142 151 151 147 145 140 142 144 136 134 133 129 128 125 125 123 122 120 115 114 116 118 117 119 122 117 109 105 106 104 100 100 101 104 103 99 97 95 94
234 266 331 326 258 53 97 186 158 97 105 111 106 113 117 120 123 120 121 121 120 124 112 92 87 100 102 100 99 103 105 110 119 123 127 131 134 135 136 136 135 137 147 158 150 149 149 152 156 151 149 144 142 139 143 148 142 143 144 147 148 145 144 142 143 144 139 136 131 125 123 124 126 124 121 120 120 121 120 121 123 127 129 119 110 107 105 105 104 101 103 108 107 103 99 97 95
219 233 264 321 265 269 177 157 130 107 111 110 109 116 118 121 124 122 118 121 131 123 105 107 112 112 110 105 103 112 116 120 123 125 130 133 134 135 136 136 136 136 146 152 137 147 151 145 146 144 143 140 138 141 153 154 153 154 149 150 149 145 143 145 147 145 141 135 128 124 123 127 130 128 124 124 129 128 124 125 127 131 130 120 112 109 107 107 110 108 111 112 108 104 99 98 97
215 181 159 292 239 214 193 139 120 124 117 109 110 114 117 124 124 121 118 124 132 118 109 118 116 114 112 103 105 116 123 127 126 129 133 135 135 136 137 135 137 137 150 161 132 134 149 144 138 138 140 142 144 149 162 156 158 158 147 148 147 144 144 145 147 141 135 130 128 126 126 128 129 130 129 133 137 134 132 132 131 129 127 121 115 111 106 107 112 114 116 114 109 104 101 99 96
265 86 93 271 219 201 217 134 124 125 119 117 114 113 120 124 122 120 121 124 127 120 124 127 117 120 117 108 116 126 131 131 130 133 135 136 136 135 136 134 138 139 152 170 134 131 145 151 139 138 144 143 148 153 156 152 155 149 141 146 142 140 141 140 141 136 130 129 130 127 124 126 127 129 131 137 140 136 136 136 133 127 126 124 117 112 107 106 112 116 118 115 110 106 103 99 96
273 61 152 260 106 186 266 133 129 126 120 117 113 119 125 120 116 119 122 120 124 122 114 117 123 125 116 116 127 135 137 136 135 137 137 138 137 135 135 135 138 132 141 147 125 135 147 150 140 140 145 141 146 150 150 148 145 139 140 145 136 133 135 134 136 132 129 130 129 124 123 127 127 127 127 131 136 135 134 133 132 130 130 126 116 114 112 107 111 119 120 115 109 105 101 97 96
267 249 174 337 79 160 237 143 131 123 116 116 117 123 120 110 109 117 126 121 113 113 112 119 127 121 117 123 135 143 141 140 140 139 139 138 136 135 134 136 135 128 141 144 124 135 131 126 133 140 141 138 144 146 146 145 139 136 139 139 130 129 132 132 131 129 129 129 125 123 127 130 127 125 124 125 129 130 127 124 127 130 130 124 118 118 116 113 118 122 119 114 108 102 96 92 91
288 277 89 27 214 172 206 147 125 121 124 131 127 122 114 106 112 117 119 117 105 105 117 125 123 122 137 142 144 147 143 142 143 140 139 138 135 135 136 137 133 126 137 134 118 122 121 125 133 135 135 134 140 143 140 141 137 135 134 131 127 129 131 131 130 130 129 127 123 124 128 127 121 121 122 124 125 124 122 121 122 124 123 122 122 119 116 119 123 123 119 113 107 99 93 88 88
303 304 95 223 270 108 200 115 117 136 137 137 132 126 118 104 108 107 101 117 118 112 118 123 121 132 149 145 141 145 144 143 143 141 139 137 136 135 137 137 133 125 125 113 96 107 121 132 136 129 127 126 134 140 138 139 135 133 132 131 130 130 131 130 131 131 127 124 124 124 123 118 112 111 115 124 127 126 126 124 122 120 121 121 118 113 115 121 125 125 119 112 104 96 90 84 81
307 295 41 344 353 44 34 75 118 136 135 138 139 135 124 109 106 104 109 124 119 112 111 117 119 125 135 135 138 143 143 143 143 142 140 140 141 141 144 141 135 124 121 119 93 92 101 119 131 127 126 123 131 139 137 137 133 132 132 131 131 130 130 130 129 126 123 123 124 122 118 113 108 104 111 122 125 131 136 132 128 123 119 114 111 112 116 121 123 121 116 110 101 95 90 82 75
312 313 2 9 76 57 59 99 105 103 137 141 141 137 127 122 119 121 124 120 116 117 115 111 106 107 118 128 136 141 142 144 145 145 144 147 149 148 151 147 138 127 123 124 115 108 108 132 138 125 127 123 121 129 132 132 131 131 130 129 131 129 129 129 126 123 124 123 122 119 115 113 109 104 105 113 121 129 133 129 124 118 113 111 109 111 115 117 117 117 113 104 93 88 83 73 58
317 36 16 1 32 70 68 157 95 92 153 140 138 137 127 127 127 136 131 123 131 130 121 117 112 113 121 130 137 141 144 147 148 150 149 151 152 151 153 147 139 132 129 126 122 120 122 137 126 120 126 121 116 119 123 125 128 128 126 128 128 127 127 127 124 123 123 120 119 116 114 113 111 111 111 115 120 122 123 120 116 113 111 109 109 111 114 114 112 113 107 91 79 69 65 63 34
324 9 69 56 2 93 63 310 104 119 172 145 138 136 127 128 131 144 136 133 139 132 130 130 128 128 132 137 140 143 146 150 151 153 151 149 150 151 150 146 141 135 135 131 127 126 125 124 115 122 123 122 125 121 118 121 126 126 125 127 126 125 124 123 123 123 122 120 118 116 116 114 114 120 117 114 114 113 114 114 114 116 114 113 114 113 111 113 113 106 91 77 67 60 58 69 84
329 348 37 97 228 63 60 316 118 150 175 148 139 140 133 132 135 139 134 140 140 135 138 137 139 138 139 143 143 146 149 152 154 153 150 146 146 149 145 143 140 139 139 132 131 131 128 128 129 129 121 122 127 123 119 120 123 123 122 123 122 123 122 123 124 122 122 117 115 115 117 118 120 120 115 115 113 110 112 115 120 120 117 118 112 108 109 105 98 87 70 59 55 61 68 100 104
309 3 44 97 118 47 78 288 273 196 167 145 149 145 136 138 137 133 127 131 134 138 140 139 144 142 143 146 145 149 151 153 155 151 149 145 146 148 142 138 136 138 134 127 132 132 129 131 132 128 121 120 122 122 119 113 116 121 122 123 123 124 126 126 124 124 119 113 117 123 123 124 123 121 123 125 117 112 112 112 117 116 119 118 104 110 127 100 79 80 67 54 67 97 102 102 101
315 36 39 46 44 42 181 235 247 237 171 152 159 144 143 147 139 131 111 102 125 133 136 138 143 144 144 145 147 151 152 153 153 150 149 146 147 145 139 137 136 135 130 129 135 132 131 134 132 128 120 118 119 121 121 117 121 131 130 128 130 131 130 128 129 130 120 117 125 126 124 126 124 125 125 118 110 107 103 101 105 110 122 121 111 123 135 116 99 111 101 89 107 108 100 97 95
326 20 28 15 11 5 218 222 211 235 211 163 160 153 152 145 140 139 113 115 135 131 131 137 141 144 145 145 148 151 152 153 150 149 147 145 145 142 138 136 135 134 132 133 134 130 132 134 132 130 122 119 119 120 126 127 128 131 128 129 133 132 129 130 136 133 126 127 129 125 125 124 123 122 117 108 107 109 109 114 110 111 121 122 124 124 116 114 112 108 98 95 94 99 106 104 100
15 29 24 15 14 24 55 83 177 210 260 184 167 163 135 109 123 122 116 134 139 130 133 139 141 145 147 147 148 151 152 151 148 147 144 143 142 139 138 137 136 136 135 135 134 133 134 134 131 129 126 125 124 124 128 130 129 126 125 130 131 126 130 134 134 129 126 128 124 122 124 122 122 120 114 108 110 115 116 120 113 115 124 120 123 119 110 109 103 97 96 97 89 99 108 105 113
51 61 43 38 46 62 67 61 136 177 239 203 177 162 135 126 133 101 109 139 135 135 141 141 145 148 149 148 149 152 151 150 149 146 142 141 141 140 140 141 140 139 138 137 135 136 134 132 132 131 131 129 128 129 130 129 129 127 128 130 125 126 134 131 127 127 127 127 128 130 125 121 124 119 115 112 114 118 117 117 114 119 123 119 122 117 110 106 101 99 96 100 98 106 112 107 108
73 81 68 64 68 71 79 87 150 197 216 197 174 150 125 121 138 116 126 149 142 144 146 145 148 149 151 150 148 151 149 150 149 145 144 143 144 144 144 143 143 141 140 139 137 138 136 134 137 137 134 132 133 133 131 129 128 128 128 126 125 129 129 125 125 129 129 133 139 135 121 112 121 120 114 113 119 120 119 120 119 124 122 118 119 114 111 106 102 104 106 114 113 111 113 114 112
108 109 83 76 86 87 100 121 154 207 207 173 153 142 123 104 131 144 147 162 156 150 149 151 152 150 154 149 147 151 149 151 151 149 150 148 148 149 146 145 146 143 143 143 140 140 139 139 140 139 136 137 136 133 132 130 129 129 125 126 131 128 124 126 127 127 134 137 137 134 125 124 132 130 122 116 120 121 123 123 121 126 124 122 121 114 111 103 100 105 111 116 116 116 113 118 118
136 119 95 78 107 107 100 109 106 257 234 102 141 167 164 152 158 157 164 173 163 158 155 156 155 153 154 149 148 152 149 152 155 154 153 150 151 151 149 148 147 146 145 145 144 143 142 141 140 138 139 137 133 133 133 130 130 128 127 133 132 125 124 130 129 131 140 138 136 140 140 140 135 128 127 122 121 121 120 125 126 129 127 128 125 112 99 92 102 110 111 110 115 124 119 121 120
157 125 148 86 113 108 100 123 108 268 273 20 153 204 183 160 163 166 176 182 168 165 162 159 159 156 155 153 153 153 153 156 157 157 153 151 153 151 150 149 148 148 147 148 147 146 144 143 141 140 139 134 132 134 133 131 132 130 132 136 129 126 131 133 132 136 139 137 140 143 143 144 135 129 127 115 111 117 119 125 127 134 132 120 115 107 94 89 97 101 114 116 117 123 117 115 118
182 160 183 91 23 115 118 151 166 205 251 313 241 249 159 153 168 174 176 183 175 169 169 166 161 159 159 157 158 156 156 159 158 156 154 153 153 152 151 149 150 152 150 150 150 148 146 144 143 143 140 135 137 136 133 135 135 134 136 136 131 133 137 135 136 138 138 138 143 146 145 144 137 133 127 110 103 112 122 124 129 140 127 108 114 104 93 90 86 89 103 105 116 117 108 107 111
232 204 171 92 270 118 123 161 192 209 224 232 229 243 79 171 179 177 176 188 186 169 173 175 164 163 164 160 161 160 157 158 158 156 155 154 152 152 153 151 152 153 154 153 153 151 148 146 145 145 142 140 141 136 136 137 135 138 138 137 137 136 137 137 140 140 140 141 143 149 149 142 135 134 127 114 109 114 120 122 138 142 120 108 120 88 79 85 78 87 85 80 116 122 111 109 107
229 235 201 188 226 139 131 157 196 212 201 204 220 207 134 260 223 186 179 193 196 175 177 182 169 166 167 164 164 161 160 160 159 157 155 155 153 153 153 153 153 153 155 156 154 153 149 147 146 146 144 143 143 141 140 137 138 140 138 138 136 134 137 138 139 139 146 154 148 148 150 141 136 132 127 121 115 115 119 119 135 136 119 121 120 80 84 86 69 75 75 78 105 99 103 111 110
194 230 265 196 275 94 146 134 217 217 227 206 216 224 167 188 227 200 186 194 200 194 191 185 173 170 169 167 166 163 163 162 160 159 157 156 153 154 154 154 154 152 155 157 155 154 151 148 148 148 147 145 146 147 141 137 141 139 138 141 135 134 138 137 139 139 146 156 145 146 145 132 133 130 129 126 115 112 121 124 137 138 135 130 110 90 95 83 72 68 72 87 79 70 84 110 114
322 319 309 194 60 41 162 136 167 187 232 207 190 216 208 181 198 206 196 199 204 205 211 194 176 173 174 170 168 166 165 164 164 162 159 157 153 155 155 154 156 154 156 159 157 155 152 150 152 151 149 148 151 149 141 141 145 140 143 146 137 138 141 139 141 137 140 152 151 147 129 120 135 129 129 131 119 114 121 130 144 135 139 136 111 106 96 80 83 66 79 99 60 53 74 92 107
266 271 285 276 163 191 20 102 168 190 227 209 176 196 211 189 186 202 194 209 224 209 223 226 188 173 177 175 171 168 167 167 165 163 160 157 156 156 156 156 158 157 157 160 159 158 155 154 155 153 152 155 157 152 145 149 151 146 151 150 142 143 141 142 140 137 143 149 157 146 129 139 148 132 133 137 130 132 129 138 150 133 135 147 116 106 101 94 99 68 77 89 42 18 88 100 113
248 255 252 242 209 116 351 335 174 213 258 241 189 186 204 201 187 195 183 191 235 212 201 235 203 175 182 179 171 171 169 166 162 163 161 158 158 157 157 159 160 158 160 162 162 162 161 159 158 156 156 160 161 157 152 155 157 153 155 153 150 147 144 145 140 142 140 139 158 141 124 147 146 136 140 138 138 143 139 145 157 144 143 167 155 138 140 128 110 70 48 58 28 14 53 70 111
253 257 254 245 208 132 220 267 127 234 284 310 264 183 189 205 187 187 184 184 224 212 196 232 214 178 182 184 173 171 168 163 162 164 162 160 160 159 160 161 162 162 163 165 165 164 164 163 162 160 161 163 164 163 158 158 160 155 156 156 153 150 147 149 144 144 145 159 169 140 128 166 153 143 148 142 137 138 142 143 155 157 157 181 181 157 153 139 110 61 21 16 17 149 115 85 74
257 252 257 253 145 131 201 236 273 252 286 295 268 232 175 188 181 184 189 189 212 207 173 232 249 205 183 183 175 172 170 165 165 166 164 164 162 160 161 164 164 164 166 167 168 167 165 166 165 164 165 165 165 168 163 160 161 154 154 154 151 150 147 151 151 150 149 163 167 148 164 178 150 143 143 135 137 141 145 129 132 171 169 180 183 161 163 150 99 50 33 36 37 165 135 112 95
254 251 268 247 160 171 218 187 247 272 280 274 274 267 162 163 183 186 188 190 202 203 169 207 247 260 207 186 177 177 174 168 168 168 167 166 165 164 164 165 167 167 168 169 169 169 168 170 170 168 169 168 169 173 167 161 163 158 154 152 152 154 150 153 157 158 155 160 167 166 183 164 134 148 151 137 174 176 152 134 139 183 176 178 186 171 153 116 79 46 59 113 77 28 70 107 105
248 238 259 270 203 227 20 111 275 286 265 282 329 300 207 175 192 191 182 187 196 211 201 205 224 255 242 199 179 181 177 172 171 169 169 168 167 168 166 166 169 169 172 173 172 172 171 174 175 171 172 171 174 177 169 165 170 165 161 160 162 161 158 162 167 170 169 171 173 169 187 166 141 162 166 149 192 185 159 160 162 164 171 171 176 183 157 127 187 269 313 108 80 74 32 38 59
255 233 238 254 248 252 324 43 301 284 262 152 85 294 248 168 194 200 182 183 200 206 209 216 205 216 248 221 184 182 181 177 176 171 170 171 169 169 168 169 172 172 174 176 174 174 173 175 178 176 174 173 178 181 173 170 175 171 167 167 167 167 167 172 175 177 176 177 180 170 178 179 156 167 168 153 180 183 165 175 161 146 179 181 173 184 184 177 186 210 336 24 39 131 159 326 359
259 257 263 259 251 267 293 317 289 280 306 76 170 278 299 164 198 197 183 185 200 208 207 212 197 187 229 230 195 182 183 180 179 175 172 172 172 172 171 172 175 174 176 176 176 176 173 175 179 178 175 174 179 184 178 176 177 174 172 170 172 175 171 173 174 170 171 172 180 172 168 180 169 164 178 176 182 183 167 178 171 153 164 207 189 175 175 186 183 189 193 161 247 232 146 293 292
258 27 320 292 292 273 271 281 277 279 333 13 230 263 276 262 225 190 177 183 194 206 209 204 198 188 203 222 207 187 184 183 180 179 176 173 175 176 175 176 177 176 176 176 176 177 175 176 180 179 177 175 180 187 184 180 180 178 176 174 178 181 176 174 169 163 167 165 166 164 161 185 179 162 183 208 188 182 186 187 186 166 165 189 186 171 194 217 209 215 225 233 254 263 307 288 294
261 284 299 291 285 275 274 268 270 275 289 266 223 233 260 281 220 192 174 183 200 204 209 200 195 194 193 210 215 195 185 186 183 181 179 176 177 178 177 177 179 178 177 177 177 177 176 178 180 181 180 178 181 189 188 183 184 184 180 178 181 181 178 178 172 167 172 168 168 172 166 178 189 175 184 205 196 194 204 190 186 179 164 165 178 187 203 215 228 247 254 264 280 270 276 284 298
269 281 265 255 261 267 262 250 264 274 269 270 231 211 263 231 158 184 175 192 209 202 208 202 192 195 195 203 211 200 186 187 186 183 182 179 177 178 178 178 180 180 178 177 177 178 177 179 181 183 184 183 185 193 193 189 189 190 184 183 186 181 176 177 177 179 184 182 180 186 184 175 182 193 192 205 207 197 201 191 187 191 161 171 205 201 207 238 266 298 280 255 253 248 262 288 292
277 285 265 239 232 231 234 239 259 272 260 260 198 169 247 268 158 174 189 202 206 191 197 205 195 197 200 201 207 201 188 187 187 184 183 181 177 178 179 179 180 180 179 177 178 178 178 180 182 185 187 186 190 197 196 193 193 193 189 187 188 185 184 185 188 194 197 193 185 187 198 186 177 190 198 215 215 197 205 192 173 201 202 202 218 199 205 254 300 351 260 265 279 274 269 278 282
266 269 263 249 233 216 229 238 232 251 263 259 177 175 214 253 228 188 213 213 200 183 183 199 198 198 202 200 203 205 193 186 187 184 183 181 178 180 181 179 180 180 179 179 179 179 179 181 183 186 189 187 190 197 196 195 194 194 194 192 192 192 190 192 198 204 204 199 192 191 202 199 189 189 192 207 205 196 214 202 176 200 212 201 204 201 204 217 218 219 244 263 287 290 288 288 287
248 246 246 244 241 228 239 246 231 241 249 259 330 268 239 247 239 199 212 209 194 184 181 191 195 197 202 197 197 206 198 187 187 185 184 183 179 181 181 178 180 179 180 181 180 180 179 181 184 186 189 188 188 193 194 194 194 195 197 196 198 200 196 197 201 206 205 200 199 202 207 205 197 193 193 199 198 195 212 215 194 202 217 211 205 213 218 213 207 212 242 254 263 279 283 280 283
237 242 245 240 237 236 241 240 240 252 227 154 46 294 268 245 195 184 203 197 184 184 183 188 194 196 201 196 193 205 202 188 188 186 184 184 181 181 181 179 180 179 181 182 181 182 180 180 184 186 189 190 189 190 192 194 194 196 199 198 200 204 205 206 205 205 207 206 204 203 207 207 203 202 198 196 196 193 203 221 217 213 226 229 221 224 230 235 232 225 237 247 250 266 268 271 282
245 252 244 243 246 247 258 250 246 274 266 136 110 262 276 281 141 129 187 184 169 176 181 185 195 196 198 197 194 204 204 190 187 187 184 184 182 181 182 180 181 180 181 184 183 182 181 181 185 187 190 192 191 190 192 194 195 198 200 200 200 203 207 210 209 207 206 207 209 207 205 204 203 203 200 197 200 195 196 218 229 224 231 236 234 236 235 248 254 243 246 251 247 263 274 282 286
276 279 235 226 252 251 257 266 270 290 295 309 200 238 272 273 218 105 171 177 157 164 176 180 189 193 192 199 199 204 206 194 186 187 185 185 183 182 182 181 182 182 181 184 184 182 183 184 185 188 191 194 194 193 193 195 196 199 201 201 200 202 204 206 209 210 208 206 207 208 208 206 200 197 199 202 206 204 202 215 224 225 239 242 237 242 233 234 252 254 258 261 252 257 272 277 279
309 295 258 269 304 277 262 271 284 284 264 265 250 244 237 146 221 305 329 199 157 157 173 180 187 186 182 196 199 201 210 202 189 186 185 185 185 182 182 182 183 183 182 184 184 183 184 185 186 189 191 192 196 197 195 196 196 199 202 203 201 203 205 206 210 213 212 211 210 209 211 210 206 203 204 209 212 215 214 213 209 211 236 245 239 250 250 244 254 255 254 261 259 250 252 259 269
260 275 288 326 321 286 271 269 268 255 249 265 267 250 227 130 232 302 354 316 202 177 180 178 184 189 187 198 197 199 214 209 190 186 186 185 186 184 183 184 184 185 185 185 185 184 186 188 189 191 191 191 196 199 197 197 199 200 202 204 202 204 208 209 211 212 211 213 214 214 212 211 213 210 208 208 208 217 225 222 212 205 216 228 226 230 238 246 257 254 248 260 264 259 256 259 267
270 254 256 272 278 268 264 258 257 253 245 263 266 246 230 146 213 251 46 318 289 274 217 183 179 189 194 202 197 199 216 214 192 186 186 185 186 185 184 185 185 186 186 185 186 187 188 191 192 193 194 194 195 197 197 198 201 201 203 206 204 204 207 209 211 212 211 213 214 215 214 211 212 212 211 208 202 208 223 231 229 218 220 232 234 228 231 243 255 250 245 259 271 275 276 272 267
267 249 221 244 261 255 259 292 288 270 253 264 276 256 236 68 35 16 15 265 286 317 278 219 187 185 192 201 198 193 207 214 198 187 186 187 188 186 185 186 185 186 187 187 188 190 191 192 194 195 196 196 196 196 198 199 200 201 204 208 207 205 206 208 210 211 212 214 213 213 214 212 211 211 214 216 212 210 216 225 231 227 225 230 232 231 235 246 255 251 243 243 245 257 270 275 268
251 246 235 237 233 222 212 218 257 256 257 268 280 275 248 83 41 22 8 333 285 229 278 268 217 187 187 197 196 190 199 206 201 191 187 188 189 187 186 186 186 187 188 189 191 193 193 192 195 196 196 197 197 197 198 199 200 202 203 205 206 207 208 208 209 211 212 213 214 212 212 213 212 212 213 218 220 216 216 219 223 226 225 224 224 226 227 234 247 256 252 239 235 248 263 269 265
278 267 257 257 252 238 229 240 240 240 252 253 257 275 301 88 348 48 64 339 292 239 233 291 261 200 181 193 193 191 199 200 200 196 191 189 189 188 186 187 188 188 188 191 192 193 194 193 194 197 198 199 199 199 200 200 200 203 204 205 206 207 209 210 211 213 214 213 213 213 211 212 214 214 214 216 219 220 219 221 224 227 226 222 227 234 232 231 241 253 256 249 247 261 272 268 260